Radiation Dose at Monitoring Post of Fukushima Daini Nuclear Power Station
Date,Time,MP-1(microSv/h),MP-2(microSv/h),MP-3(microSv/h),MP-4(microSv/h),MP-5(microSv/h),MP-6(microSv/h),MP-7(microSv/h),Wind Direction,Wind Velocity(m/s),Rain
2019/08/26,00:00,0.192,0.169,0.291,0.273,0.267,0.147,0.090,west,1.0,No
2019/08/26,00:10,0.189,0.170,0.292,0.276,0.271,0.147,0.090,west,1.8,No
2019/08/26,00:20,0.193,0.170,0.290,0.272,0.270,0.147,0.091,west,4.6,No
2019/08/26,00:30,0.191,0.169,0.292,0.274,0.267,0.146,0.089,west-northwest,3.7,No
2019/08/26,00:40,0.190,0.170,0.291,0.274,0.271,0.148,0.090,west,2.4,No
2019/08/26,00:50,0.192,0.168,0.293,0.273,0.267,0.145,0.090,west,3.5,No
2019/08/26,01:00,0.190,0.170,0.292,0.276,0.269,0.147,0.091,west-northwest,3.1,No
2019/08/26,01:10,0.192,0.168,0.290,0.272,0.271,0.147,0.090,west,3.0,No
2019/08/26,01:20,0.191,0.169,0.291,0.275,0.267,0.145,0.090,west-northwest,2.0,No
2019/08/26,01:30,0.190,0.169,0.291,0.273,0.270,0.148,0.091,north-northwest,1.7,No
2019/08/26,01:40,0.192,0.169,0.292,0.273,0.268,0.147,0.091,northeast,2.1,No
2019/08/26,01:50,0.191,0.168,0.291,0.274,0.267,0.147,0.091,west-northwest,0.9,No
2019/08/26,02:00,0.193,0.170,0.292,0.273,0.271,0.146,0.090,northwest,1.9,No
2019/08/26,02:10,0.192,0.168,0.292,0.275,0.267,0.147,0.090,north-northwest,2.1,No
2019/08/26,02:20,0.192,0.169,0.291,0.274,0.270,0.146,0.090,north,2.4,No
2019/08/26,02:30,0.191,0.168,0.293,0.273,0.269,0.147,0.090,north,2.6,No
2019/08/26,02:40,0.192,0.170,0.290,0.273,0.269,0.146,0.090,north-northwest,2.6,No
2019/08/26,02:50,0.192,0.167,0.291,0.272,0.270,0.148,0.090,north-northwest,3.0,No
2019/08/26,03:00,0.190,0.170,0.291,0.274,0.268,0.147,0.090,north-northwest,3.4,No
2019/08/26,03:10,0.194,0.169,0.292,0.272,0.271,0.147,0.090,north-northwest,3.5,No
2019/08/26,03:20,0.191,0.169,0.290,0.276,0.268,0.148,0.091,north-northwest,3.7,No
2019/08/26,03:30,0.192,0.169,0.293,0.273,0.270,0.146,0.090,north-northwest,4.2,No
2019/08/26,03:40,0.191,0.170,0.292,0.275,0.270,0.148,0.091,north-northwest,2.8,No
2019/08/26,03:50,0.192,0.168,0.291,0.275,0.268,0.147,0.090,north-northwest,2.0,No
2019/08/26,04:00,0.192,0.169,0.293,0.274,0.270,0.147,0.091,north-northwest,2.8,No
2019/08/26,04:10,0.190,0.169,0.290,0.275,0.268,0.146,0.091,north-northwest,2.2,No
2019/08/26,04:20,0.192,0.169,0.293,0.272,0.270,0.147,0.090,north,3.3,No
2019/08/26,04:30,0.191,0.169,0.290,0.276,0.269,0.147,0.090,north,3.2,No
2019/08/26,04:40,0.191,0.170,0.293,0.274,0.269,0.147,0.091,north,3.0,No
2019/08/26,04:50,0.192,0.169,0.291,0.274,0.271,0.146,0.091,north,4.1,Yes
2019/08/26,05:00,0.191,0.168,0.291,0.273,0.268,0.147,0.090,north-northwest,4.0,No
2019/08/26,05:10,0.194,0.170,0.291,0.273,0.271,0.146,0.091,north-northwest,4.8,No
2019/08/26,05:20,0.191,0.169,0.291,0.275,0.269,0.146,0.091,north-northwest,3.9,No
2019/08/26,05:30,0.191,0.169,0.293,0.274,0.269,0.147,0.092,north-northwest,4.4,No
2019/08/26,05:40,0.191,0.169,0.292,0.275,0.271,0.146,0.091,north-northwest,3.6,No
2019/08/26,05:50,0.191,0.170,0.292,0.272,0.268,0.147,0.091,north-northwest,2.9,No
2019/08/26,06:00,0.192,0.168,0.290,0.275,0.271,0.147,0.091,northwest,2.9,No
2019/08/26,06:10,0.190,0.169,0.294,0.274,0.270,0.147,0.091,north-northwest,3.8,No
2019/08/26,06:20,0.192,0.169,0.292,0.274,0.267,0.147,0.090,north-northwest,3.6,No
2019/08/26,06:30,0.191,0.169,0.291,0.275,0.272,0.146,0.091,north-northwest,3.1,No
2019/08/26,06:40,0.191,0.170,0.291,0.271,0.269,0.146,0.091,north-northwest,3.2,No
2019/08/26,06:50,0.192,0.169,0.289,0.274,0.267,0.146,0.090,north,4.1,No
2019/08/26,07:00,0.193,0.169,0.293,0.273,0.270,0.146,0.090,north-northwest,3.5,No
2019/08/26,07:10,0.190,0.171,0.292,0.272,0.270,0.147,0.090,north-northwest,2.3,No
2019/08/26,07:20,0.193,0.168,0.290,0.273,0.267,0.147,0.090,north-northwest,3.3,No
2019/08/26,07:30,0.193,0.167,0.289,0.275,0.266,0.146,0.091,north-northwest,3.5,No
2019/08/26,07:40,0.190,0.168,0.288,0.274,0.269,0.148,0.089,north,3.0,No
2019/08/26,07:50,0.189,0.168,0.288,0.273,0.271,0.147,0.090,north-northeast,4.5,No
2019/08/26,08:00,0.192,0.170,0.293,0.272,0.269,0.146,0.090,north,4.0,No
2019/08/26,08:10,0.192,0.169,0.293,0.270,0.266,0.147,0.089,north,4.2,No
2019/08/26,08:20,0.191,0.169,0.290,0.271,0.268,0.147,0.091,north,4.6,No
2019/08/26,08:30,0.189,0.168,0.288,0.272,0.266,0.148,0.091,north,4.9,No
2019/08/26,08:40,0.190,0.168,0.291,0.271,0.267,0.147,0.091,north,3.1,No
2019/08/26,08:50,0.189,0.169,0.292,0.272,0.267,0.146,0.091,north,4.5,No
2019/08/26,09:00,0.189,0.168,0.291,0.273,0.267,0.146,0.090,north-northeast,4.4,No
2019/08/26,09:10,0.189,0.170,0.290,0.273,0.266,0.147,0.090,north-northeast,4.8,No
2019/08/26,09:20,0.192,0.169,0.291,0.273,0.268,0.146,0.091,north-northeast,5.5,No
2019/08/26,09:30,0.193,0.169,0.294,0.273,0.267,0.147,0.090,north-northeast,4.4,No
2019/08/26,09:40,0.191,0.168,0.292,0.274,0.268,0.148,0.091,north-northeast,4.3,No
2019/08/26,09:50,0.191,0.169,0.290,0.272,0.269,0.147,0.090,north-northeast,5.4,No
2019/08/26,10:00,0.190,0.168,0.289,0.275,0.269,0.148,0.091,north-northeast,5.1,No
2019/08/26,10:10,0.190,0.169,0.294,0.274,0.269,0.146,0.090,northeast,4.9,No
2019/08/26,10:20,0.190,0.169,0.293,0.274,0.269,0.146,0.091,northeast,5.3,No
2019/08/26,10:30,0.190,0.169,0.289,0.275,0.268,0.146,0.091,northeast,4.1,No
2019/08/26,10:40,0.191,0.168,0.288,0.274,0.267,0.146,0.090,northeast,4.3,No
2019/08/26,10:50,0.190,0.168,0.288,0.274,0.269,0.146,0.089,northeast,4.2,No
2019/08/26,11:00,0.190,0.168,0.289,0.274,0.268,0.146,0.089,east-northeast,4.1,No
2019/08/26,11:10,0.190,0.167,0.289,0.273,0.267,0.145,0.090,east-northeast,3.5,No
2019/08/26,11:20,0.189,0.167,0.288,0.273,0.268,0.146,0.090,east-northeast,3.7,No
2019/08/26,11:30,0.189,0.168,0.289,0.272,0.268,0.146,0.088,east-northeast,3.3,No
2019/08/26,11:40,0.189,0.168,0.294,0.273,0.268,0.146,0.089,northeast,3.2,No
2019/08/26,11:50,0.192,0.167,0.294,0.272,0.267,0.146,0.089,east-northeast,3.5,Yes
2019/08/26,12:00,0.194,0.171,0.293,0.272,0.269,0.147,0.090,east-northeast,3.1,Yes
2019/08/26,12:10,0.192,0.171,0.292,0.274,0.272,0.148,0.090,east-northeast,2.9,No
2019/08/26,12:20,0.192,0.169,0.296,0.277,0.270,0.147,0.090,east-northeast,3.2,Yes
2019/08/26,12:30,0.194,0.169,0.294,0.276,0.269,0.148,0.090,east-northeast,2.9,Yes
2019/08/26,12:40,0.193,0.170,0.292,0.274,0.268,0.147,0.091,east-northeast,3.1,No
2019/08/26,12:50,0.192,0.171,0.290,0.274,0.268,0.148,0.089,northeast,2.6,No
2019/08/26,13:00,0.192,0.170,0.291,0.271,0.268,0.148,0.090,east-northeast,2.3,No
2019/08/26,13:10,0.190,0.169,0.294,0.274,0.267,0.147,0.090,east-northeast,2.7,No
2019/08/26,13:20,0.189,0.169,0.292,0.277,0.267,0.146,0.090,east-northeast,2.3,No
2019/08/26,13:30,0.189,0.168,0.289,0.276,0.268,0.148,0.089,east-northeast,2.6,No
2019/08/26,13:40,0.189,0.168,0.290,0.273,0.267,0.148,0.089,east-northeast,3.7,No
2019/08/26,13:50,0.193,0.168,0.289,0.274,0.268,0.148,0.090,northeast,2.5,No
2019/08/26,14:00,0.194,0.168,0.288,0.271,0.269,0.147,0.089,east,3.2,No
2019/08/26,14:10,0.191,0.169,0.290,0.273,0.268,0.147,0.090,east,2.5,No
2019/08/26,14:20,0.192,0.168,0.290,0.272,0.269,0.147,0.089,east,3.0,No
2019/08/26,14:30,0.191,0.167,0.292,0.272,0.268,0.148,0.090,east,2.5,No
2019/08/26,14:40,0.189,0.170,0.294,0.271,0.268,0.148,0.091,east,2.0,No
2019/08/26,14:50,0.190,0.169,0.292,0.274,0.268,0.147,0.090,east-northeast,1.2,No
2019/08/26,15:00,0.189,0.168,0.289,0.276,0.273,0.148,0.089,east,2.0,No
2019/08/26,15:10,0.191,0.168,0.289,0.274,0.270,0.147,0.089,southeast,0.8,No
2019/08/26,15:20,0.192,0.168,0.293,0.273,0.268,0.147,0.090,-,CALM,No
2019/08/26,15:30,0.193,0.169,0.294,0.272,0.268,0.146,0.090,southeast,0.9,No
2019/08/26,15:40,0.191,0.170,0.291,0.274,0.267,0.147,0.089,southeast,1.1,No
2019/08/26,15:50,0.190,0.169,0.290,0.276,0.266,0.147,0.089,east-southeast,1.1,No
2019/08/26,16:00,0.190,0.169,0.288,0.272,0.268,0.147,0.089,east-southeast,1.5,No
2019/08/26,16:10,0.190,0.166,0.293,0.272,0.267,0.146,0.089,east,2.1,No
2019/08/26,16:20,0.189,0.169,0.293,0.270,0.267,0.146,0.089,-,CALM,No
2019/08/26,16:30,0.193,0.169,0.292,0.276,0.267,0.149,0.089,east-southeast,0.8,No
2019/08/26,16:40,0.192,0.170,0.288,0.275,0.269,0.148,0.090,east-southeast,0.8,No
2019/08/26,16:50,0.191,0.168,0.294,0.273,0.272,0.146,0.090,east-southeast,0.9,No
2019/08/26,17:00,0.190,0.168,0.293,0.272,0.268,0.147,0.089,east,1.5,No
2019/08/26,17:10,0.192,0.170,0.290,0.276,0.268,0.147,0.090,east-southeast,1.2,No
2019/08/26,17:20,0.194,0.169,0.292,0.276,0.269,0.147,0.090,east-southeast,0.7,No
2019/08/26,17:30,0.191,0.168,0.292,0.274,0.271,0.147,0.091,east-southeast,0.7,No
2019/08/26,17:40,0.190,0.169,0.290,0.274,0.270,0.147,0.090,-,CALM,No
2019/08/26,17:50,0.193,0.170,0.289,0.277,0.267,0.147,0.091,-,CALM,No
2019/08/26,18:00,0.194,0.168,0.292,0.274,0.271,0.147,0.090,southeast,0.8,No
2019/08/26,18:10,0.192,0.169,0.292,0.274,0.272,0.147,0.090,south-southeast,0.9,No
2019/08/26,18:20,0.191,0.169,0.290,0.275,0.268,0.147,0.090,south,1.2,No
2019/08/26,18:30,0.193,0.167,0.295,0.276,0.268,0.147,0.090,south,1.4,No
2019/08/26,18:40,0.192,0.169,0.292,0.274,0.271,0.146,0.090,south-southwest,1.4,No
2019/08/26,18:50,0.191,0.169,0.290,0.273,0.268,0.148,0.089,southwest,0.9,No
2019/08/26,19:00,0.194,0.169,0.293,0.276,0.268,0.148,0.091,southwest,0.9,No
2019/08/26,19:10,0.192,0.169,0.293,0.274,0.270,0.147,0.091,south-southwest,0.8,No
2019/08/26,19:20,0.190,0.168,0.290,0.273,0.271,0.148,0.090,south-southwest,0.6,No
2019/08/26,19:30,0.192,0.168,0.294,0.276,0.267,0.147,0.091,-,CALM,No
2019/08/26,19:40,0.193,0.170,0.292,0.275,0.271,0.146,0.091,-,CALM,No
2019/08/26,19:50,0.191,0.169,0.290,0.274,0.271,0.147,0.089,-,CALM,No
2019/08/26,20:00,0.193,0.169,0.295,0.276,0.269,0.147,0.091,-,CALM,No
2019/08/26,20:10,0.193,0.170,0.292,0.275,0.269,0.147,0.091,-,CALM,No
2019/08/26,20:20,0.190,0.168,0.291,0.275,0.271,0.147,0.090,-,CALM,No
2019/08/26,20:30,0.192,0.169,0.295,0.277,0.267,0.147,0.090,-,CALM,No
2019/08/26,20:40,0.192,0.169,0.292,0.275,0.269,0.146,0.091,-,CALM,No
2019/08/26,20:50,0.191,0.169,0.292,0.274,0.271,0.147,0.090,-,CALM,No
2019/08/26,21:00,0.193,0.169,0.294,0.276,0.268,0.148,0.090,-,CALM,No
2019/08/26,21:10,0.193,0.170,0.291,0.273,0.271,0.147,0.091,-,CALM,No
2019/08/26,21:20,0.191,0.169,0.293,0.276,0.271,0.148,0.089,northwest,0.6,No
2019/08/26,21:30,0.194,0.169,0.293,0.275,0.268,0.146,0.091,-,CALM,No
2019/08/26,21:40,0.191,0.168,0.291,0.273,0.272,0.148,0.090,northwest,0.7,No
2019/08/26,21:50,0.190,0.169,0.293,0.277,0.271,0.148,0.090,-,CALM,No
2019/08/26,22:00,0.192,0.168,0.292,0.275,0.267,0.147,0.091,-,CALM,No
2019/08/26,22:10,0.193,0.169,0.291,0.273,0.272,0.147,0.089,-,CALM,No
2019/08/26,22:20,0.191,0.170,0.293,0.276,0.269,0.148,0.090,-,CALM,No
2019/08/26,22:30,0.194,0.168,0.291,0.276,0.266,0.146,0.090,-,CALM,No
2019/08/26,22:40,0.191,0.170,0.293,0.274,0.271,0.147,0.091,-,CALM,No
2019/08/26,22:50,0.192,0.170,0.292,0.277,0.269,0.146,0.090,-,CALM,No
2019/08/26,23:00,0.192,0.169,0.290,0.274,0.268,0.147,0.091,-,CALM,No
2019/08/26,23:10,0.191,0.169,0.294,0.275,0.271,0.148,0.090,-,CALM,No
2019/08/26,23:20,0.192,0.168,0.293,0.275,0.269,0.148,0.090,-,CALM,No
2019/08/26,23:30,0.194,0.169,0.291,0.273,0.268,0.146,0.091,-,CALM,No
2019/08/26,23:40,0.191,0.169,0.294,0.277,0.272,0.148,0.090,-,CALM,Yes
2019/08/26,23:50,0.194,0.170,0.292,0.275,0.268,0.147,0.091,-,CALM,No
